FW5468 Weather Reports


time (UTC)temp
F
wind
direction
speed
knots
gust
knots
rain 1hr
in
rain 24hr
in
rain mn
in
humidity
%
barometer
mb
20260510201628 83 9 1.7 7.0 0.00 0.00 0.00 50 1014.3
20260510194510 83 157 1.7 7.8 0.00 0.00 0.00 49 1014.8
20260510193120 84 15 1.7 3.5 0.00 0.00 0.00 49 1014.9
20260510191546 85 332 0.9 4.3 0.00 0.00 0.00 48 1015.0
20260510190022 84 4 1.7 7.8 0.00 0.00 0.00 48 1015.1
20260510184606 82 44 0.9 3.5 0.00 0.00 0.00 49 1015.1
20260510183036 82 291 0.9 7.8 0.00 0.00 0.00 50 1014.9
20260510181600 82 326 2.6 5.2 0.00 0.00 0.00 53 1015.0
20260510180040 81 339 1.7 3.5 0.00 0.00 0.00 49 1015.1
20260510174527 80 10 1.7 7.0 0.00 0.00 0.00 52 1015.2
20260510173102 81 27 3.5 7.8 0.00 0.00 0.00 53 1015.5
20260510171531 80 91 3.5 8.7 0.00 0.00 0.00 57 1015.6
20260510170101 79 8 6.1 10.4 0.00 0.00 0.00 56 1015.7
20260510164533 78 339 4.3 9.6 0.00 0.00 0.00 59 1015.8
20260510163102 78 10 0.9 6.1 0.00 0.00 0.00 64 1015.7
20260510161552 77 26 4.3 8.7 0.00 0.00 0.00 61 1015.7
20260510160004 76 45 0.0 4.3 0.00 0.00 0.00 67 1015.8
20260510154559 75 265 0.9 5.2 0.00 0.00 0.00 66 1015.7
20260510153033 73 217 0.0 1.7 0.00 0.00 0.00 69 1015.7
20260510151601 72 73 0.9 2.6 0.00 0.00 0.00 75 1015.4
20260510150056 71 213 0.0 2.6 0.00 0.00 0.00 75 1015.4
20260510144504 70 299 0.0 2.6 0.00 0.00 0.00 76 1015.4
20260510143057 69 308 0.9 3.5 0.00 0.00 0.00 76 1015.5
20260510141538 68 146 0.9 1.7 0.00 0.00 0.00 81 1015.4
20260510134602 65 16 0.0 2.6 0.00 0.00 0.00 83 1015.4
20260510133132 64 164 0.0 2.6 0.00 0.00 0.00 84 1015.3
20260510131546 63 284 0.0 1.7 0.00 0.00 0.00 87 1015.5
20260510130010 62 299 0.0 2.6 0.00 0.00 0.00 88 1015.4
20260510124605 61 335 1.7 4.3 0.00 0.00 0.00 91 1015.4
20260510123045 59 343 0.0 2.6 0.00 0.00 0.00 93 1015.1
20260510121510 57 354 2.6 4.3 0.00 0.00 0.00 93 1015.0
20260510120103 55 157 0.0 0.0 0.00 0.00 0.00 93 1014.5
20260510114603 54 157 0.0 0.0 0.00 0.00 0.00 92 1014.3
20260510113003 54 139 0.0 0.0 0.00 0.00 0.00 91 1014.1
20260510111611 54 116 0.0 0.0 0.00 0.00 0.00 91 1013.7
20260510110041 54 68 0.0 0.0 0.00 0.00 0.00 90 1013.4
20260510104620 54 68 0.0 0.0 0.00 0.00 0.00 90 1013.1
20260510103035 54 68 0.0 0.0 0.00 0.00 0.00 90 1013.0
20260510101507 54 122 0.0 0.0 0.00 0.00 0.00 90 1012.8
20260510094528 55 191 0.0 0.0 0.00 0.00 0.00 89 1012.4
20260510093128 55 191 0.0 0.0 0.00 0.00 0.00 89 1012.2
20260510091547 55 191 0.0 0.0 0.00 0.00 0.00 88 1012.5
20260510090112 55 192 0.0 0.0 0.00 0.00 0.00 88 1012.5
20260510084544 55 192 0.0 0.0 0.00 0.00 0.00 88 1012.0
20260510083038 55 193 0.0 0.0 0.00 0.00 0.00 87 1011.8
20260510081625 56 192 0.0 0.0 0.00 0.00 0.00 87 1011.7
20260510080157 57 192 0.0 0.9 0.00 0.00 0.00 86 1011.5
20260510074517 57 212 0.0 0.0 0.00 0.00 0.00 85 1011.5
20260510073030 57 213 0.0 1.7 0.00 0.00 0.00 85 1011.8
20260510071557 57 216 0.0 0.9 0.00 0.00 0.00 86 1011.9
20260510070043 57 162 0.0 0.0 0.00 0.00 0.00 87 1011.9
20260510064610 57 151 0.0 0.0 0.00 0.00 0.00 86 1011.6
20260510063101 58 151 0.0 0.0 0.00 0.00 0.00 85 1011.3
20260510061537 58 149 0.0 0.9 0.00 0.00 0.00 85 1011.3
20260510060002 59 222 0.0 0.0 0.00 0.00 0.00 84 1011.3
20260510054606 60 201 0.0 0.0 0.00 0.00 0.00 83 1011.4
20260510053042 60 201 0.0 0.0 0.00 0.00 0.00 82 1011.3
20260510051507 60 158 0.0 0.0 0.00 0.00 0.00 82 1011.3
20260510050100 60 158 0.0 0.0 0.00 0.00 0.00 82 1011.3
20260510044509 61 157 0.0 0.0 0.00 0.00 0.00 82 1011.3
20260510043104 62 158 0.0 0.0 0.00 0.00 0.00 80 1011.4
20260510041557 62 158 0.0 0.0 0.00 0.00 0.00 79 1011.4
20260510040035 63 160 0.0 0.0 0.00 0.00 0.00 78 1011.4
20260510034611 64 160 0.0 0.0 0.00 0.00 0.00 77 1011.3
20260510033121 65 149 0.0 0.0 0.00 0.00 0.00 74 1011.3
20260510031547 65 160 0.0 0.0 0.00 0.00 0.00 69 1011.4
20260510030032 66 160 0.0 0.9 0.00 0.00 0.00 67 1011.4
20260510024608 67 162 0.0 0.0 0.00 0.00 0.00 64 1011.2
20260510023054 68 160 0.0 0.0 0.00 0.00 0.00 63 1011.1
20260510021542 69 161 0.0 0.0 0.00 0.00 0.00 59 1010.8
20260510020107 70 161 0.0 0.0 0.00 0.00 0.00 58 1010.6
20260510014556 71 160 0.0 0.0 0.00 0.00 0.00 57 1010.3
20260510013013 72 161 0.0 0.9 0.00 0.00 0.00 57 1010.2
20260510011601 72 207 0.0 0.9 0.00 0.00 0.00 56 1010.1
20260510010100 74 170 0.0 0.9 0.00 0.00 0.00 54 1009.9
20260510004512 75 170 0.0 0.9 0.00 0.00 0.00 53 1009.9
20260510003109 76 163 0.0 0.9 0.00 0.00 0.00 52 1009.6
20260510001552 77 179 0.0 1.7 0.00 0.00 0.00 50 1009.6
20260510000010 78 154 0.9 2.6 0.00 0.00 0.00 46 1009.6
20260509234612 79 144 0.0 2.6 0.00 0.00 0.00 44 1009.5
20260509233038 81 90 0.0 2.6 0.00 0.00 0.00 38 1009.4
20260509231513 82 113 0.0 2.6 0.00 0.00 0.00 38 1009.2
20260509230108 84 114 0.0 3.5 0.00 0.00 0.00 35 1009.2
20260509224551 85 4 0.0 3.5 0.00 0.00 0.00 36 1009.2
20260509223019 84 93 0.0 2.6 0.00 0.00 0.00 32 1009.2
20260509221610 84 15 2.6 4.3 0.00 0.00 0.00 33 1009.2
20260509220105 84 87 1.7 3.5 0.00 0.00 0.00 37 1009.1
20260509214553 83 97 1.7 4.3 0.00 0.00 0.00 35 1009.2
20260509213040 84 89 0.0 4.3 0.00 0.00 0.00 34 1009.1
20260509211506 84 12 0.9 7.0 0.00 0.00 0.00 38 1009.0
20260509204547 84 103 0.0 3.5 0.00 0.00 0.00 42 1008.9
20260509203008 82 10 3.5 7.8 0.00 0.00 0.00 41 1009.0